Weather Roundup
Issued by NWS Chicago, IL

Home | Current Version | Previous Version | Text Only | Print | Product List | Glossary On
Versions: 1 2 3 4 5 6 7 8 9 10 11 12 13 14 15 16 17 18 19 20 21 22 23 24 25 26 27 28 29 30 31 32 33 34 35 36 37 38 39 40 41 42 43 44 45 46 47 48 49 50
000
NZUS59 KLOT 111010
HRRLOT

CHICAGO AREA WEATHER ROUNDUP
NATIONAL WEATHER SERVICE CHICAGO/ROMEOVILLE IL
500 AM CDT FRI JUL 11 2014

NOTE: "FAIR" INDICATES FEW OR NO CLOUDS BELOW 12,000 FEET WITH NO
SIGNIFICANT WEATHER AND/OR OBSTRUCTIONS TO VISIBILITY.

* THESE STATIONS ARE NOT UNDER NWS QUALITY CONTROL. THEY ALSO MAY NOT
  REPORT WEATHER SUCH AS PRECIPITATION OR FOG.

ILZ005-006-012>014-019>023-111100-
NORTHEAST ILLINOIS

CITY           SKY/WX    TMP DP  RH WIND       PRES   REMARKS
OHARE          PTCLDY    61  52  72 S6        30.18S
MIDWAY         MOCLDY    65  53  65 SE5       30.18S
AURORA         CLEAR     56  51  84 NE3       30.18S
LANSING*       PTCLDY    56  51  85 CALM      30.20R
JOLIET*        CLEAR     57  51  80 CALM      30.19S
WAUKEGAN       PTCLDY    58  54  86 CALM      30.18S
DUPAGE AIRPORT CLEAR     58  53  84 CALM      30.18S
WHEELING       PTCLDY    61  55  81 CALM      30.19S
KANKAKEE*      PTCLDY    54  54  98 CALM      30.19S
MORRIS*        CLEAR     58  56  95 CALM      30.18S
LEWIS AIRPORT* CLEAR     56  51  81 SE6       30.18F
NORTHERLY IS     N/A     65  54  67 SW1         N/A
$$

WIZ051-052-058>065-066-070>072-111100-
SOUTHEAST WISCONSIN

CITY           SKY/WX    TMP DP  RH WIND       PRES   REMARKS
MILWAUKEE      PTCLDY    60  51  72 SE5       30.18S
KENOSHA*       PTCLDY    55  52  89 S3        30.18F
RACINE*        PTCLDY    62  56  80 S5        30.20S
BURLINGTON     PTCLDY    52  52  99 CALM      30.18S
WAUKESHA       PTCLDY    59  48  67 S6        30.19S
WEST BEND      PTCLDY    59  46  63 CALM      30.17S
$$

INZ001>003-010>013-019-020-111100-
NORTHWEST INDIANA

CITY           SKY/WX    TMP DP  RH WIND       PRES   REMARKS
GARY*          PTCLDY    54  54 100 SE3       30.20R
MICHIGAN CITY* NOT AVBL
RENSSELAER*    NOT AVBL
VALPARAISO     PTCLDY    52  50  93 CALM      30.21S
$$

LMZ740>746-111100-
SOUTHERN LAKE MICHIGAN

STATION/POSITION TIME  SKY/WX   TEMP WIND        PRES    VSBY
                                AIR  DIR/SP/G
                 (UTC)          (F)  (DEG/KT/KT) (MB)    (MI)
HARRISON CRIB    1000            67  160/  8/  9   N/A
BURNHAM HARBOR   1000            64   CALM  /  4   N/A
CALUMET HARBOR   1000            62   CALM  /  2 1022.9S
BURNS HARBOR     NOT AVBL
MICHIGAN CITY    1000            60  120/  8/  9   N/A
$$

ABBREVIATIONS USED IN REMARKS
   TC - TEMPERATURE IN CELSIUS
  WCI - WIND CHILL INDEX
   HX - HEAT INDEX
  VSB - VISIBILITY
$$


USA.gov is the U.S. government's official web portal to all federal, state and local government web resources and services.